[[{"header":{"parameterUnit":"m.s-1","parameterCategory":1,"la1":30.2991,"la2":30.254,"lo1":-89.0895,"lo2":-89.0444,"dy":0.0017,"dx":0.0017,"nx":28,"ny":28,"refTime":"2026-02-01T09:00:00:Z","depth":0,"parameterNumber":2,"parameterNumberName":"U-component_of_WINDS"},"data":[0,0,0,0,0,0,0,0,0,0,0,0,0,0,0,0,0,0,0,0,0,0,0,0,0,0,0,0,0,0,0,0,0,0,0,0,0,0,0,0,0,0,0,0,0,0,0,0,0,0,0,0,0,0,0,0,0,0,3.2079,3.208,0,3.2112,3.2113,3.2113,3.205,3.2048,3.2046,3.2044,3.2075,3.2078,3.2081,0,0,0,0,0,0,0,0,0,0,0,0,0,3.1959,3.1962,3.2079,3.208,3.208,3.2112,3.2113,3.2113,3.205,3.2048,3.2045,3.2043,3.2074,3.2077,3.2081,0,0,0,0,0,0,0,0,0,0,0,0,0,3.2004,3.1963,3.2079,3.2053,3.2051,3.2112,3.2113,3.2113,3.2051,3.2047,3.2044,3.2041,3.2073,3.2077,3.2081,3.217,0,0,3.2094,3.2096,0,0,0,0,0,0,0,0,3.2001,3.2008,3.2056,3.2055,3.2052,3.2074,3.2082,3.2132,3.2051,3.2051,3.2044,3.204,3.2077,3.2081,3.2094,3.2171,3.2173,3.2094,3.2097,3.2099,3.21,0,0,0,0,0,0,0,3.1998,3.2007,3.2092,3.2057,3.2055,3.2038,3.2041,3.2091,3.2081,3.205,3.2046,3.2051,3.2075,3.209,3.2094,3.2173,3.2094,3.2098,3.2101,3.2102,3.2324,3.2327,0,0,0,0,0,0,3.1999,3.2004,3.2091,3.2093,3.2019,3.2043,3.2046,3.207,3.208,3.2079,3.2053,3.2048,3.2084,3.2089,3.2095,3.2198,3.2099,3.2103,3.2105,3.2321,3.2325,3.2329,0,0,0,0,0,0,3.1997,3.2007,3.209,3.2048,3.2057,3.2048,3.2076,3.2072,3.2087,3.2083,3.208,3.207,3.2082,3.2089,3.2152,3.2199,3.2104,3.2108,3.2317,3.2322,3.2327,3.2407,0,0,0,0,0,0,3.1994,3.2007,3.2041,3.2049,3.206,3.2147,3.2079,3.2075,3.2094,3.2087,3.2098,3.2096,3.208,3.2146,3.2156,3.2203,3.2112,3.2312,3.2319,3.2325,3.24,3.2414,3.2426,0,0,0,0,0,3.1989,3.2062,3.2043,3.2054,3.2102,3.215,3.2156,3.2136,3.2098,3.2132,3.2129,3.2096,3.2192,3.2153,3.2163,3.2212,3.2309,3.2317,3.2325,3.2394,3.2411,3.2426,0,0,0,0,0,0,3.2059,3.2062,3.2042,3.2119,3.2135,3.2139,3.2181,3.2155,3.2182,3.2174,3.2148,3.215,3.2218,3.2221,3.2177,3.2298,3.2244,3.2254,3.2293,3.231,3.2323,3.232,3.2115,0,0,0,0,0,3.2083,3.2123,3.2123,3.2191,3.2201,3.219,3.221,3.2194,3.2209,3.2215,3.2216,3.2232,3.2265,3.2288,3.2318,3.2401,3.2401,3.244,3.2453,3.2463,3.2472,3.2515,3.2532,3.2354,3.2353,3.2353,0,0,3.2134,3.214,3.2167,3.2206,3.2216,3.2256,3.2196,3.2241,3.2271,3.2221,3.2281,3.2283,3.2298,3.2371,3.2403,3.2375,3.2522,3.2473,3.2482,3.2485,3.2525,3.2542,3.2557,3.2359,3.2358,3.2357,0,0,3.2246,3.2256,3.2313,3.2325,3.2342,3.2334,3.2348,3.2357,3.2357,3.2416,3.238,3.2414,3.2473,3.2485,3.2499,3.2617,3.2587,3.2628,3.2696,3.2738,3.2752,3.2764,3.2805,3.2821,3.2637,3.2637,3.2637,0,3.2306,3.2367,3.2346,3.2394,3.2412,3.237,3.2428,3.244,3.2466,3.2479,3.2448,3.2521,3.2528,3.2603,3.2632,3.2645,3.2659,3.2626,3.2752,3.2764,3.2775,3.2814,3.283,3.2642,3.2641,3.264,3.264,0,3.244,3.2483,3.2527,3.2554,3.2577,3.2629,3.2616,3.2641,3.2623,3.2619,3.2679,3.2687,3.2718,3.2735,3.2717,3.2807,3.279,3.2756,3.2701,3.2797,3.2833,3.2848,3.2648,3.2647,3.2645,3.2644,0,0,3.2596,3.2611,3.2628,3.2639,3.2655,3.2687,3.2738,3.2769,3.2791,3.2811,3.2852,3.2903,3.2872,3.2887,3.2871,3.2908,3.3,3.287,3.287,3.2893,3.3099,3.3124,3.3141,3.2981,3.2984,3.2986,3.3097,0,3.2707,3.2795,3.2778,3.2864,3.2902,3.2863,3.2907,3.2921,3.2919,3.295,3.2947,3.2983,3.294,3.2949,3.2985,3.2982,3.3041,3.2974,3.3018,3.302,3.3015,3.316,3.3186,3.3291,3.3111,3.3114,3.3116,0,3.2849,3.2874,3.2964,3.2973,3.2989,3.3029,3.3056,3.3087,3.3102,3.3097,3.3116,3.3092,3.3142,3.3087,3.3155,3.3109,3.3126,3.3128,3.3131,3.3134,3.3073,3.3166,3.3324,3.3339,3.3138,3.3136,3.3134,0,3.2953,3.301,3.307,3.3082,3.3094,3.3123,3.313,3.3142,3.3162,3.3185,3.3198,3.3227,3.3243,3.3265,3.325,3.3212,3.332,3.3264,3.3316,3.3317,3.334,3.3339,3.3502,3.3353,3.3353,3.3352,3.3352,0,3.3078,3.3135,3.3117,3.3155,3.3216,3.3196,3.3257,3.3259,3.327,3.3306,3.3274,3.3309,3.3287,3.332,3.3309,3.3366,3.3373,3.337,3.3366,3.3373,3.3373,3.3383,3.3375,3.3357,3.3356,3.3355,3.3354,0,3.3205,3.3196,3.3259,3.3266,3.3269,3.3315,3.332,3.3354,3.335,3.3396,3.3406,3.3398,3.3435,3.3422,3.3462,3.3454,3.3526,3.3513,3.3522,3.3518,3.3571,3.3566,3.3746,3.3768,3.3605,3.3607,3.3608,0,3.3285,3.3327,3.3339,3.3362,3.3371,3.3408,3.3428,3.3409,3.3432,3.3452,3.3484,3.3518,3.3545,3.3605,3.3603,3.3632,3.3619,3.368,3.3624,3.3629,3.3619,3.3617,3.362,3.3691,3.3693,3.3695,3.3696,0,3.3428,3.3422,3.3453,3.3483,3.3508,3.353,3.3549,3.3569,3.3552,3.3579,3.3616,3.3637,3.3678,3.3712,3.3739,3.3744,3.3717,3.3714,3.3728,3.3734,3.3737,3.3735,3.3552,3.371,3.3709,3.3708,3.3707,3.3706,3.3533,3.3569,3.3583,3.3619,3.3631,3.365,3.3683,3.3682,3.3714,3.3746,3.3733,3.3776,3.3789,3.3823,3.3833,3.3866,3.3842,3.3862,3.3867,3.3872,3.3878,3.3733,3.3871,3.387,3.387,3.3869,3.3869,0,3.3674,3.3681,3.3715,3.3743,3.3771,3.3744,3.3764,3.3789,3.3827,3.3843,3.3869,3.3913,3.3946,3.3946,3.3976,3.4003,3.3991,3.4011,3.4009,3.401,3.3898,3.3883,3.402,3.402,3.402,3.402,3.402,3.402,3.3751,3.381,3.3805,3.387,3.3876,3.3919,3.3932,3.3949,3.3961,3.4011,3.4039,3.4039,3.4048,3.4079,3.4108,3.4107,3.4119,3.4144,3.4138,3.4033,3.4018,3.4004,3.3989,3.4147,3.4147,3.4248,3.4249,3.4249]},{"header":{"parameterUnit":"m.s-1","parameterCategory":1,"la1":30.2991,"la2":30.254,"lo1":-89.0895,"lo2":-89.0444,"dy":0.0017,"dx":0.0017,"nx":28,"ny":28,"refTime":"2026-02-01T09:00:00:Z","depth":0,"parameterNumber":3,"parameterNumberName":"V-component_of_WINDS"},"data":[0,0,0,0,0,0,0,0,0,0,0,0,0,0,0,0,0,0,0,0,0,0,0,0,0,0,0,0,0,0,0,0,0,0,0,0,0,0,0,0,0,0,0,0,0,0,0,0,0,0,0,0,0,0,0,0,0,0,-2.8887,-2.8888,0,-2.9003,-2.9004,-2.9005,-2.9009,-2.9007,-2.9006,-2.9004,-2.9123,-2.9127,-2.9132,0,0,0,0,0,0,0,0,0,0,0,0,0,-2.8669,-2.8673,-2.8887,-2.8888,-2.889,-2.9002,-2.9004,-2.9006,-2.9009,-2.9007,-2.9005,-2.9004,-2.9121,-2.9127,-2.9132,0,0,0,0,0,0,0,0,0,0,0,0,0,-2.8772,-2.8674,-2.8887,-2.8905,-2.8908,-2.9002,-2.9004,-2.9006,-2.9009,-2.9007,-2.9005,-2.9003,-2.912,-2.9126,-2.9133,-2.9216,0,0,-2.9153,-2.9156,0,0,0,0,0,0,0,0,-2.8766,-2.878,-2.8901,-2.8904,-2.8907,-2.8989,-2.897,-2.9077,-2.901,-2.8971,-2.9004,-2.9002,-2.908,-2.909,-2.9116,-2.9222,-2.9227,-2.9154,-2.9158,-2.9161,-2.9163,0,0,0,0,0,0,0,-2.8759,-2.8775,-2.8933,-2.8903,-2.8906,-2.8907,-2.892,-2.8991,-2.9036,-2.8974,-2.8974,-2.8988,-2.9081,-2.911,-2.9119,-2.9229,-2.9154,-2.916,-2.9164,-2.9166,-2.9409,-2.9411,0,0,0,0,0,0,-2.8748,-2.8769,-2.8929,-2.8936,-2.883,-2.8913,-2.8927,-2.8965,-2.9035,-2.9044,-2.899,-2.8988,-2.9099,-2.9111,-2.9123,-2.9225,-2.9161,-2.9167,-2.9171,-2.9406,-2.9409,-2.9412,0,0,0,0,0,0,-2.8743,-2.8762,-2.8924,-2.8853,-2.8873,-2.8919,-2.8962,-2.8968,-2.8997,-2.9047,-2.9055,-2.901,-2.9098,-2.9114,-2.9193,-2.9229,-2.917,-2.9176,-2.9404,-2.9407,-2.9411,-2.943,0,0,0,0,0,0,-2.8737,-2.8761,-2.8793,-2.8853,-2.8877,-2.8992,-2.8964,-2.8972,-2.9008,-2.9007,-2.9069,-2.9077,-2.9098,-2.9183,-2.92,-2.9237,-2.9181,-2.94,-2.9405,-2.9409,-2.9426,-2.9434,-2.944,0,0,0,0,0,-2.8729,-2.8794,-2.8794,-2.8814,-2.8918,-2.8994,-2.9008,-2.9031,-2.9011,-2.9044,-2.9076,-2.9075,-2.9223,-2.9191,-2.921,-2.925,-2.9398,-2.9404,-2.9409,-2.9423,-2.9432,-2.944,0,0,0,0,0,0,-2.8736,-2.8802,-2.8803,-2.8889,-2.8936,-2.8995,-2.9036,-2.904,-2.9093,-2.9089,-2.9116,-2.913,-2.9208,-2.9238,-2.9201,-2.9335,-2.9308,-2.9318,-2.9313,-2.9322,-2.9329,-2.9319,-2.9187,0,0,0,0,0,-2.8747,-2.8803,-2.8858,-2.8929,-2.8952,-2.899,-2.9024,-2.9038,-2.9088,-2.9107,-2.9146,-2.9194,-2.9251,-2.9288,-2.9344,-2.9431,-2.9444,-2.9468,-2.9475,-2.9481,-2.9488,-2.9536,-2.9547,-2.943,-2.943,-2.943,0,0,-2.8771,-2.8814,-2.8848,-2.8931,-2.8969,-2.9026,-2.9007,-2.9069,-2.9111,-2.9117,-2.9194,-2.9224,-2.9279,-2.9363,-2.9401,-2.9389,-2.9524,-2.9488,-2.9492,-2.9496,-2.9543,-2.9554,-2.9564,-2.9434,-2.9433,-2.9432,0,0,-2.8844,-2.8883,-2.8946,-2.8984,-2.9042,-2.9067,-2.9082,-2.9141,-2.9161,-2.9239,-2.9244,-2.9295,-2.9394,-2.9433,-2.9466,-2.9555,-2.9555,-2.9572,-2.9608,-2.9654,-2.9664,-2.9672,-2.9703,-2.9714,-2.958,-2.958,-2.958,0,-2.8867,-2.8954,-2.8977,-2.9039,-2.9075,-2.9083,-2.9147,-2.9183,-2.9256,-2.9281,-2.9267,-2.939,-2.9428,-2.9521,-2.9543,-2.9569,-2.9587,-2.9564,-2.966,-2.9669,-2.9677,-2.9707,-2.9718,-2.9581,-2.9581,-2.9581,-2.9581,0,-2.8978,-2.9038,-2.9082,-2.9152,-2.9194,-2.9256,-2.9289,-2.9328,-2.9339,-2.9365,-2.9444,-2.9491,-2.9555,-2.9579,-2.959,-2.9673,-2.9664,-2.9655,-2.9628,-2.9689,-2.9718,-2.9729,-2.9584,-2.9583,-2.9583,-2.9582,0,0,-2.9057,-2.914,-2.9156,-2.9188,-2.9252,-2.9299,-2.9362,-2.9426,-2.9458,-2.9509,-2.9562,-2.9646,-2.9638,-2.9675,-2.969,-2.9731,-2.9798,-2.9717,-2.9719,-2.973,-2.9892,-2.9897,-2.991,-2.9799,-2.9802,-2.9803,-2.9887,0,-2.9136,-2.9248,-2.9271,-2.9368,-2.9423,-2.9432,-2.9487,-2.9533,-2.9559,-2.9611,-2.9641,-2.9699,-2.9685,-2.9707,-2.9748,-2.9781,-2.983,-2.9776,-2.9848,-2.985,-2.9832,-2.9925,-2.9931,-3.0008,-2.9898,-2.99,-2.9902,0,-2.9243,-2.9296,-2.9398,-2.9455,-2.9479,-2.9528,-2.9588,-2.9637,-2.9689,-2.9706,-2.9748,-2.9759,-2.9825,-2.9797,-2.9887,-2.9849,-2.9881,-2.9902,-2.9905,-2.9912,-2.9879,-2.9933,-3.0033,-3.0044,-2.9919,-2.9918,-2.9917,0,-2.9289,-2.9386,-2.9459,-2.9486,-2.9555,-2.9589,-2.962,-2.967,-2.9707,-2.976,-2.9784,-2.9844,-2.9876,-2.9922,-2.995,-2.9927,-3.0038,-3.0012,-3.0053,-3.0053,-3.0075,-3.0073,-3.018,-3.0098,-3.0097,-3.0097,-3.0097,0,-2.9374,-2.9435,-2.9481,-2.9525,-2.9595,-2.9622,-2.969,-2.972,-2.9765,-2.9816,-2.9828,-2.9875,-2.9909,-2.9962,-2.9983,-3.0055,-3.007,-3.0085,-3.009,-3.0083,-3.0081,-3.0103,-3.0098,-3.01,-3.01,-3.0099,-3.0098,0,-2.9436,-2.9469,-2.9549,-2.9608,-2.9625,-2.9673,-2.9724,-2.9768,-2.9795,-2.986,-2.9876,-2.992,-2.9982,-3.0014,-3.0092,-3.0107,-3.0187,-3.0189,-3.0169,-3.0171,-3.021,-3.0205,-3.0333,-3.0351,-3.0258,-3.0259,-3.026,0,-2.9487,-2.9535,-2.9599,-2.9634,-2.9665,-2.9722,-2.9759,-2.9788,-2.9827,-2.989,-2.9927,-2.999,-3.0041,-3.0141,-3.0179,-3.0239,-3.0242,-3.0283,-3.0251,-3.0243,-3.0241,-3.0238,-3.0242,-3.0288,-3.0289,-3.029,-3.029,0,-2.9575,-2.9589,-2.9642,-2.9702,-2.9747,-2.9795,-2.9843,-2.9871,-2.9908,-2.9951,-3.0015,-3.0055,-3.0135,-3.0197,-3.026,-3.0291,-3.0297,-3.03,-3.0313,-3.0306,-3.0292,-3.0299,-3.0183,-3.0297,-3.0296,-3.0296,-3.0295,-3.0295,-2.9633,-2.9675,-2.9727,-2.9786,-2.9826,-2.987,-2.9914,-2.9947,-3.0001,-3.0068,-3.0082,-3.015,-3.0201,-3.0286,-3.0319,-3.0373,-3.0364,-3.0382,-3.0387,-3.0391,-3.0392,-3.0284,-3.0384,-3.0384,-3.0384,-3.0384,-3.0384,0,-2.972,-2.9753,-2.9808,-2.9874,-2.9921,-2.9923,-2.9976,-3.0015,-3.0075,-3.0122,-3.0173,-3.0247,-3.0307,-3.0351,-3.0413,-3.0447,-3.0451,-3.0462,-3.0459,-3.0466,-3.0397,-3.0379,-3.0458,-3.0458,-3.0458,-3.0458,-3.0458,-3.0458,-2.977,-2.9842,-2.9862,-2.9954,-2.9988,-3.0054,-3.0084,-3.0125,-3.0163,-3.0244,-3.0295,-3.0323,-3.0369,-3.0434,-3.049,-3.0502,-3.0523,-3.0534,-3.0545,-3.0479,-3.0471,-3.0464,-3.0447,-3.0539,-3.0539,-3.061,-3.0611,-3.0612]}]]